カタログに戻る

STARLINK-35272

運用中通信VLEO
NORAD 65899·PAYLOAD·🇺🇸 United States

打ち上げ Oct 7, 2025 から Cape Canaveral Space Force Station

Loading…

次のパス (今後24時間)

TLE

最新Source: CelesTrak SupGP

元期: Sep 14, 2026, 14:59 UTC

1 65899C 25224T   26257.62479167  .00014033  00000+0  41463-3 0  2574
2 65899  53.1579 209.2486 0001384 100.2330 297.6407 15.34382676    16

AllMySatでSTARLINK-35272をリアルタイム追跡

Download on the App Store